Regional Weather Roundup
Issued by NWS Sterling, VA

Current Version | Previous Version | Text Only | Print | Product List | Glossary On
Versions: 1 2 3 4 5 6 7 8 9 10 11 12 13 14 15 16 17 18 19 20 21 22 23 24 25 26 27 28 29 30 31 32 33 34 35 36 37 38 39 40 41 42 43 44 45 46 47 48 49 50
000
ASUS41 KLWX 050610
RWRLWX

REGIONAL WEATHER ROUNDUP
NATIONAL WEATHER SERVICE BALTIMORE MD/WASHINGTON DC
200 AM EDT TUE MAY 05 2015

Note: "FAIR" indicates few or no clouds below 12,000 feet
with no significant weather and/or obstructions to visibility.
 TC=TEMPERATURE CELSIUS

 * =Non NWS site. Station does not report precipitation (e.g. rain,
    snow, etc.), thunder, or fog.

DCZ001-MDZ009-015-VAZ040>042-051-053>054-050700-
WASHINGTON METRO

CITY           SKY/WX    TMP DP  RH WIND       PRES   REMARKS
WASHINGTON NAT PTCLDY    70  55  59 S9        30.20F
DULLES         PTCLDY    67  53  61 S9        30.20S
ANDREWS AFB    CLEAR     67  53  61 S12       30.20F
FT BELVOIR     CLEAR     69  55  62 VRB3      30.20F
QUANTICO       CLEAR     68  56  65 S12       30.22F
COLLEGE PARK*  CLEAR     72  52  49 S5        30.20S
LEESBURG*      CLEAR     64  55  72 SW3       30.21S
MANASSAS*      CLEAR     66  55  68 S5        30.21S
GAITHERSBURG*  CLEAR     68  52  56 S5        30.24S

$$

MDZ006>007-011-014-050700-
BALTIMORE METRO

CITY           SKY/WX    TMP DP  RH WIND       PRES   REMARKS
BWI AIRPORT    CLEAR     69  52  54 SW8       30.18F
MD SCIENCE CTR   N/A     66  54  65 MISG      30.19F
MARTIN STATE   CLEAR     63  59  88 CALM      30.20F
ANNAPOLIS      CLEAR     64  55  72 SE3       30.19F
FORT MEADE*    CLEAR     63  54  72 SW6       30.21F

$$

MDZ012-015-019>023-050700-
MARYLAND EASTERN SHORE

CITY           SKY/WX    TMP DP  RH WIND       PRES   REMARKS
OCEAN CITY     CLEAR     64  55  72 SW12      30.25F
SALISBURY      CLEAR     66  53  63 SW12      30.25S
BAY BRIDGE AP*   N/A    N/A N/A N/A S7        30.20F
CAMBRIDGE*     CLEAR     68  52  56 S7        30.23S
EASTON*        CLEAR     67  56  67 SW8       30.26S

$$

MDZ017>025-050700-
SOUTHERN MARYLAND

CITY           SKY/WX    TMP DP  RH WIND       PRES   REMARKS
PATUXENT RIVER CLEAR     68  51  54 SW16      30.22S
ST INIGOES     CLEAR     67  54  63 S12       30.23S
LEONARDTOWN*   CLEAR     68  50  52 SW9G18    30.25S

$$

MDZ003>005-050700-
NORTH CENTRAL MARYLAND

CITY           SKY/WX    TMP DP  RH WIND       PRES   REMARKS
FREDERICK*     CLEAR     61  50  67 CALM      30.21S
HAGERSTOWN APT CLEAR     68  50  52 W3        30.19R
WESTMINSTER*   CLEAR     68  54  60 SW7       30.19S

$$

MDZ501>502-050700-
WESTERN MARYLAND

CITY           SKY/WX    TMP DP  RH WIND       PRES   REMARKS
OAKLAND*       CLOUDY    59  57  94 NW5       30.30S
CUMBERLAND*    MOCLDY    68  50  52 CALM      30.26R

$$

VAZ025>031-050700-
SHENANDOAH VALLEY

CITY           SKY/WX    TMP DP  RH WIND       PRES   REMARKS
WINCHESTER*    CLEAR     68  45  42 SW3       30.21R
FRONT ROYAL*   MOCLDY    63  52  67 S6        30.21R
LURAY*         FAIR      59  54  82 S3        30.23S
NEW MARKET*    FAIR      56  52  86 CALM      30.23R
STAUNTON*      CLEAR     55  51  85 CALM      30.27S
WAYNESBORO*    FAIR      58  50  75 CALM      30.27R

$$

WVZ021-048>050-054>055-050700-
EASTERN WEST VIRGINIA PANHANDLE

CITY           SKY/WX    TMP DP  RH WIND       PRES   REMARKS
MARTINSBURG    CLEAR     60  51  72 SW3       30.20R
PETERSBURG*    PTCLDY    53  47  80 CALM      30.25S

$$

VAZ036>039-050-050700-
CENTRAL FOOTHILLS

CITY           SKY/WX    TMP DP  RH WIND       PRES   REMARKS
CHARLOTTESVILL CLEAR     63  53  70 S7        30.23S
CULPEPER*      NOT AVBL
ORANGE*        CLEAR     59  54  82 CALM      30.25F
GORDONSVILLE*  FAIR      58  54  85 CALM      30.23S
WARRENTON*     FAIR      67  56  67 SW6       30.21S

$$

VAZ055>057-050700-
NORTH AND CENTRAL PIEDMONT

CITY           SKY/WX    TMP DP  RH WIND       PRES   REMARKS
FREDERICKSBRG* CLEAR     70  55  59 S10       30.22S
STAFFORD*      CLEAR     67  50  55 S5        30.26S

$$

NCZ024-NYZ072-PAZ021-071-VAZ022-071-050700-
OTHER REGIONAL OBSERVATIONS

CITY           SKY/WX    TMP DP  RH WIND       PRES   REMARKS
NEW YORK CITY  CLEAR     69  45  41 W9        30.18F
PHILADELPHIA   CLEAR     65  49  56 S8        30.19F
PITTSBURGH     CLOUDY    63  59  87 CALM      30.22F
ROANOKE        CLEAR     64  52  64 CALM      30.29F
RICHMOND       CLEAR     66  53  63 S10       30.27S
RALEIGH        PTCLDY    63  54  72 SW7       30.34S

$$

ANZ530>537-050700-
MARINE OBSERVATIONS

STATION/POSITION TIME  TEMP    WIND        PRES
                       AIR SEA DIR/SP/G
                 (UTC) (F)     (DEG/KT/KT) (MB)
THOMAS PT LIGHT  0600   64 58  170/ 15/ 16 1023.1F
BALT KEY BRIDGE  0500   67     160/  5/  8 1022.2R
COVE POINT       0500   70     230/ 17/ 19 1024.1R
LEWISETTA        0500   69 66              1023.9R
SOLOMONS ISLAND  0500      61                N/A
PINEY POINT      0500          230/ 15/ 17   N/A

$$



USA.gov is the U.S. government's official web portal to all federal, state and local government web resources and services.